CW8443 Weather Reports


Display with metric or nautical units.
time (UTC)temp
F
wind
direction
speed
MPH
gust
MPH
rain 1hr
in
rain 24hr
in
rain mn
in
humidity
%
barometer
mb
20260906052928 66 307 2.0 0.0 0.00 0.00 0.52 93 1009.6
20260906052822 66 309 2.0 0.0 0.00 0.00 0.52 93 1009.5
20260906052722 66 316 2.0 0.0 0.00 0.00 0.52 93 1009.5
20260906052618 66 303 2.0 0.0 0.00 0.00 0.52 93 1009.5
20260906052507 66 310 1.0 0.0 0.00 0.00 0.52 93 1009.5
20260906052403 66 313 1.0 0.0 0.00 0.00 0.51 93 1009.5
20260906052300 66 314 1.0 0.0 0.00 0.00 0.51 93 1009.5
20260906052157 66 306 1.0 0.0 0.00 0.00 0.51 93 1009.5
20260906052046 66 326 2.0 0.0 0.00 0.00 0.51 93 1009.5
20260906051943 66 320 2.0 0.0 0.00 0.00 0.51 93 1009.5
20260906051838 66 330 2.0 0.0 0.00 0.00 0.51 93 1009.5
20260906051735 66 320 2.0 0.0 0.00 0.00 0.51 93 1009.5
20260906051630 66 317 2.0 0.0 0.00 0.00 0.50 93 1009.5
20260906051520 66 305 3.0 0.0 0.00 0.00 0.50 93 1009.5
20260906051257 66 310 3.0 0.0 0.00 0.00 0.50 93 1009.5
20260906051155 66 320 3.0 0.0 0.00 0.00 0.50 93 1009.5
20260906051050 66 295 3.0 0.0 0.00 0.00 0.50 93 1009.5
20260906050534 66 324 2.0 0.0 0.00 0.00 0.50 93 1009.5
20260906050430 66 310 2.0 0.0 0.00 0.00 0.50 93 1009.5
20260906050325 66 316 2.0 0.0 0.00 0.00 0.50 93 1009.5
20260906050221 66 307 2.0 0.0 0.00 0.00 0.50 93 1009.5
20260906050117 66 312 2.0 0.0 0.00 0.00 0.49 93 1009.5
20260906050006 66 312 2.0 0.0 0.00 0.00 0.49 93 1009.5
20260906045900 66 299 3.0 0.0 0.00 0.00 0.49 93 1009.5
20260906045642 66 303 3.0 0.0 0.00 0.00 0.48 93 1009.6
20260906045532 66 309 3.0 0.0 0.00 0.00 0.48 93 1009.6
20260906045428 66 330 3.0 0.0 0.00 0.00 0.47 93 1009.6
20260906045324 66 313 2.0 0.0 0.00 0.00 0.47 93 1009.6
20260906045219 66 316 2.0 0.0 0.00 0.00 0.47 93 1009.6
20260906045115 66 329 2.0 0.0 0.00 0.00 0.47 93 1009.6
20260906044856 66 306 1.0 0.0 0.00 0.00 0.46 93 1009.6
20260906044752 66 326 1.0 0.0 0.00 0.00 0.46 93 1009.6
20260906044519 66 329 1.0 0.0 0.00 0.00 0.46 93 1009.6
20260906044415 66 320 1.0 0.0 0.00 0.00 0.46 93 1009.6
20260906044314 66 317 1.0 0.0 0.00 0.00 0.46 93 1009.9
20260906044211 66 317 1.0 0.0 0.00 0.00 0.45 93 1009.9
20260906044106 66 319 1.0 0.0 0.00 0.00 0.45 93 1009.9
20260906043957 66 317 2.0 0.0 0.00 0.00 0.44 93 1009.9
20260906043853 66 310 2.0 0.0 0.00 0.00 0.44 93 1009.9
20260906043748 66 323 2.0 0.0 0.00 0.00 0.44 93 1009.9
20260906043644 66 319 1.0 0.0 0.00 0.00 0.44 93 1009.9
20260906043538 66 316 2.0 0.0 0.00 0.00 0.44 93 1009.9
20260906043433 65 316 1.0 0.0 0.00 0.00 0.43 93 1009.9
20260906043328 66 314 1.0 0.0 0.00 0.00 0.43 93 1009.9
20260906042940 66 326 1.0 0.0 0.00 0.00 0.43 93 1009.9
20260906042840 66 320 1.0 0.0 0.00 0.00 0.43 93 1010.1
20260906042735 66 310 1.0 0.0 0.00 0.00 0.43 93 1010.1
20260906042632 66 334 1.0 0.0 0.00 0.00 0.43 93 1010.1
20260906042532 66 324 1.0 0.0 0.00 0.00 0.42 93 1010.1
20260906042428 66 319 2.0 0.0 0.00 0.00 0.42 93 1010.1
20260906042205 66 338 2.0 0.0 0.00 0.00 0.42 93 1010.1
20260906041817 65 337 3.0 0.0 0.00 0.00 0.41 92 1010.1
20260906041712 65 323 3.0 0.0 0.00 0.00 0.40 92 1010.1
20260906041609 65 309 3.0 0.0 0.00 0.00 0.40 93 1010.1
20260906041459 65 314 3.0 0.0 0.00 0.00 0.40 93 1010.1
20260906041400 65 331 3.0 0.0 0.00 0.00 0.40 92 1010.1
20260906041258 65 334 3.0 0.0 0.00 0.00 0.40 92 1010.3
20260906041152 65 346 3.0 0.0 0.00 0.00 0.39 92 1010.3
20260906041043 65 314 3.0 0.0 0.00 0.00 0.39 92 1010.3
20260906040940 65 307 3.0 0.0 0.00 0.00 0.39 92 1010.3
20260906040834 66 337 2.0 0.0 0.00 0.00 0.39 92 1010.3
20260906040731 66 319 2.0 0.0 0.00 0.00 0.39 92 1010.3
20260906040500 66 320 2.0 0.0 0.00 0.00 0.38 92 1010.3
20260906040356 66 336 2.0 0.0 0.00 0.00 0.38 92 1010.3
20260906040129 65 320 1.0 0.0 0.00 0.00 0.38 92 1010.3
20260906040019 65 320 1.0 0.0 0.00 0.00 0.38 92 1010.3
20260906035917 65 323 1.0 0.0 0.00 0.00 0.38 92 1010.3
20260906035650 65 323 1.0 0.0 0.00 0.00 0.37 92 1010.3
20260906035258 65 353 1.0 0.0 0.00 0.00 0.36 92 1010.3
20260906035154 65 329 1.0 0.0 0.00 0.00 0.36 92 1010.3
20260906034922 65 330 2.0 0.0 0.00 0.00 0.36 92 1010.3
20260906034817 65 322 2.0 0.0 0.00 0.00 0.36 92 1010.3
20260906034713 65 330 2.0 0.0 0.00 0.00 0.36 92 1010.3
20260906034609 65 341 2.0 0.0 0.00 0.00 0.35 92 1010.3
20260906034458 65 331 2.0 0.0 0.00 0.00 0.35 92 1010.3
20260906034359 65 340 2.0 0.0 0.00 0.00 0.35 92 1010.3
20260906034254 65 313 2.0 0.0 0.00 0.00 0.35 92 1010.5
20260906034150 65 319 2.0 0.0 0.00 0.00 0.35 92 1010.5
20260906034040 65 324 2.0 0.0 0.00 0.00 0.35 92 1010.5
20260906033938 65 314 2.0 0.0 0.00 0.00 0.35 92 1010.5
20260906033545 65 292 2.0 0.0 0.00 0.00 0.35 92 1010.5
20260906033439 65 316 2.0 0.0 0.00 0.00 0.35 92 1010.5
20260906033331 65 317 2.0 0.0 0.00 0.00 0.35 92 1010.5
20260906033227 65 319 2.0 0.0 0.00 0.00 0.35 92 1010.5
20260906033123 65 329 2.0 0.0 0.00 0.00 0.35 92 1010.5
20260906033013 65 310 2.0 0.0 0.00 0.00 0.35 92 1010.5
20260906032912 65 337 2.0 0.0 0.00 0.00 0.35 92 1010.5
20260906032806 66 320 3.0 0.0 0.00 0.00 0.35 92 1010.7
20260906032702 65 316 3.0 0.0 0.00 0.00 0.35 92 1010.7
20260906032601 65 317 3.0 0.0 0.00 0.00 0.35 92 1010.7
20260906032453 65 303 3.0 0.0 0.00 0.00 0.35 92 1010.7
20260906032349 66 324 2.0 0.0 0.00 0.00 0.35 92 1010.7
20260906032122 66 326 1.0 0.0 0.00 0.00 0.35 92 1010.7
20260906032013 65 313 1.0 0.0 0.00 0.00 0.35 92 1010.7
20260906031908 66 312 1.0 0.0 0.00 0.00 0.34 92 1010.7
20260906031810 66 330 1.0 0.0 0.00 0.00 0.34 92 1010.7
20260906031705 66 336 1.0 0.0 0.00 0.00 0.34 92 1010.7
20260906031602 66 331 1.0 0.0 0.00 0.00 0.34 92 1010.7
20260906031457 66 353 1.0 0.0 0.00 0.00 0.34 92 1010.7
20260906031358 65 353 1.0 0.0 0.00 0.00 0.34 92 1010.7
20260906031126 65 340 2.0 0.0 0.00 0.00 0.34 92 1010.7
20260906031016 65 14 1.0 0.0 0.00 0.00 0.34 92 1010.7
20260906030912 65 334 1.0 0.0 0.00 0.00 0.33 92 1010.7
20260906030807 65 326 2.0 0.0 0.00 0.00 0.33 92 1010.7
20260906030706 65 340 2.0 0.0 0.00 0.00 0.33 92 1010.7
20260906030603 65 343 2.0 0.0 0.00 0.00 0.33 92 1010.7
20260906030452 65 358 2.0 0.0 0.00 0.00 0.33 92 1010.7
20260906030347 65 340 2.0 0.0 0.00 0.00 0.33 92 1010.7
20260906030245 65 330 3.0 0.0 0.00 0.00 0.33 92 1010.7
20260906030147 65 338 3.0 0.0 0.00 0.00 0.33 92 1010.7
20260906030050 65 327 3.0 0.0 0.00 0.00 0.33 92 1010.7
20260906025944 65 313 3.0 0.0 0.00 0.00 0.33 92 1010.7
20260906025842 65 346 3.0 0.0 0.00 0.00 0.33 92 1010.9
20260906025740 65 312 3.0 0.0 0.00 0.00 0.33 92 1010.9
20260906025637 65 290 3.0 0.0 0.00 0.00 0.33 92 1010.9
20260906025402 65 313 3.0 0.0 0.00 0.00 0.33 92 1010.9
20260906025137 65 312 2.0 0.0 0.00 0.00 0.33 92 1010.9
20260906025027 65 327 2.0 0.0 0.00 0.00 0.33 92 1010.9
20260906024922 65 312 2.0 0.0 0.00 0.00 0.33 92 1010.9
20260906024821 65 331 2.0 0.0 0.00 0.00 0.33 92 1010.9
20260906024718 65 313 1.0 0.0 0.00 0.00 0.33 92 1010.9
20260906024325 65 337 1.0 0.0 0.00 0.00 0.33 92 1011.0
20260906024107 65 24 1.0 0.0 0.00 0.00 0.33 92 1011.0
20260906023836 65 355 0.0 0.0 0.00 0.00 0.33 92 1011.0
20260906023731 65 329 1.0 0.0 0.00 0.00 0.33 92 1011.0
20260906023459 65 326 1.0 0.0 0.00 0.00 0.32 92 1011.0
20260906023354 65 326 1.0 0.0 0.00 0.00 0.32 92 1011.0
20260906023251 65 324 1.0 0.0 0.00 0.00 0.32 92 1011.0
20260906023021 65 323 1.0 0.0 0.00 0.00 0.32 92 1011.0
20260906022915 65 316 1.0 0.0 0.00 0.00 0.32 92 1011.0
20260906022810 65 330 1.0 0.0 0.00 0.00 0.32 92 1011.1
20260906022706 65 330 1.0 0.0 0.00 0.00 0.32 92 1011.1
20260906022606 65 327 1.0 0.0 0.00 0.00 0.32 92 1011.1
20260906022456 65 334 1.0 0.0 0.00 0.00 0.32 92 1011.1
20260906022351 65 329 1.0 0.0 0.00 0.00 0.32 92 1011.1
20260906022246 65 343 1.0 0.0 0.00 0.00 0.32 92 1011.1
20260906022014 66 333 1.0 0.0 0.00 0.00 0.32 92 1011.2
20260906021909 66 330 1.0 0.0 0.00 0.00 0.32 92 1011.2
20260906021805 66 324 1.0 0.0 0.00 0.00 0.32 92 1011.2
20260906021700 66 320 1.0 0.0 0.00 0.00 0.32 92 1011.2
20260906021602 66 330 1.0 0.0 0.00 0.00 0.32 92 1011.2
20260906021328 65 334 1.0 0.0 0.00 0.00 0.32 92 1011.6
20260906021224 65 317 1.0 0.0 0.00 0.00 0.32 92 1011.6
20260906021119 65 317 2.0 0.0 0.00 0.00 0.32 92 1011.6
20260906021008 65 320 2.0 0.0 0.00 0.00 0.32 92 1011.6
20260906020901 65 10 2.0 0.0 0.00 0.00 0.31 92 1011.6
20260906020759 65 322 2.0 0.0 0.00 0.00 0.31 92 1011.6
20260906020655 65 322 2.0 0.0 0.00 0.00 0.31 92 1011.6
20260906020545 65 330 3.0 0.0 0.00 0.00 0.31 92 1011.6
20260906020439 65 340 3.0 0.0 0.00 0.00 0.31 92 1011.6
20260906020333 65 323 3.0 0.0 0.00 0.00 0.31 92 1011.6
20260906020229 65 333 3.0 0.0 0.00 0.00 0.31 92 1011.6
20260906015941 65 316 3.0 0.0 0.00 0.00 0.31 92 1011.6
20260906015840 65 314 2.0 0.0 0.00 0.00 0.31 92 1011.7
20260906015719 65 313 2.0 0.0 0.00 0.00 0.31 92 1011.7
20260906015619 65 334 2.0 0.0 0.00 0.00 0.31 92 1011.7
20260906015509 65 314 2.0 0.0 0.00 0.00 0.31 92 1011.7
20260906015157 65 327 3.0 0.0 0.00 0.00 0.30 92 1011.7
20260906015031 65 323 3.0 0.0 0.00 0.00 0.30 92 1011.7
20260906014721 65 322 3.0 0.0 0.00 0.00 0.29 92 1011.7
20260906014340 65 329 2.0 0.0 0.00 0.00 0.28 92 1011.6
20260906013818 66 309 1.0 0.0 0.00 0.00 0.26 92 1011.6
20260906013633 66 330 1.0 0.0 0.00 0.00 0.26 92 1011.6
20260906013438 66 326 2.0 0.0 0.00 0.00 0.26 92 1011.6
20260906013109 66 312 2.0 0.0 0.00 0.00 0.25 92 1011.6
20260906012918 66 331 2.0 0.0 0.00 0.00 0.24 92 1011.6
20260906012745 66 330 2.0 0.0 0.00 0.00 0.24 92 1011.7
20260906012613 66 312 2.0 0.0 0.00 0.00 0.24 91 1011.7
20260906012439 66 300 3.0 0.0 0.00 0.00 0.24 92 1011.7
20260906012310 66 327 3.0 0.0 0.00 0.00 0.24 92 1011.7
20260906012131 66 319 4.0 0.0 0.00 0.00 0.23 91 1011.7
20260906011956 66 307 4.0 0.0 0.00 0.00 0.23 91 1011.7
20260906011648 65 309 4.0 0.0 0.00 0.00 0.22 91 1011.7
20260906011449 65 310 4.0 0.0 0.00 0.00 0.22 91 1011.7
20260906011304 66 334 3.0 0.0 0.00 0.00 0.21 91 1011.6
20260906010935 66 316 2.0 0.0 0.00 0.00 0.21 91 1011.6
20260906010607 66 323 2.0 0.0 0.00 0.00 0.20 91 1011.6
20260906010439 66 341 2.0 0.0 0.00 0.00 0.20 91 1011.6
20260906010219 66 306 2.0 0.0 0.00 0.00 0.20 91 1011.6
20260906010054 66 7 2.0 0.0 0.00 0.00 0.20 91 1011.6
20260906005941 66 322 2.0 0.0 0.00 0.00 0.20 91 1011.6
20260906005755 66 320 1.0 0.0 0.00 0.00 0.20 91 1011.7
20260906005658 66 334 1.0 0.0 0.00 0.00 0.20 91 1011.7
20260906005535 66 317 1.0 0.0 0.00 0.00 0.20 91 1011.7
20260906005259 66 314 1.0 0.0 0.00 0.00 0.20 91 1011.7
20260906004959 66 310 1.0 0.0 0.00 0.00 0.20 91 1011.7
20260906004853 66 331 2.0 0.0 0.00 0.00 0.19 91 1011.7
20260906004736 66 327 2.0 0.0 0.00 0.00 0.19 91 1011.7
20260906004553 66 334 2.0 0.0 0.00 0.00 0.19 91 1011.7
20260906004425 66 329 2.0 0.0 0.00 0.00 0.19 91 1011.7
20260906004259 66 310 3.0 0.0 0.00 0.00 0.19 91 1011.8
20260906004127 66 310 3.0 0.0 0.00 0.00 0.19 91 1011.8
20260906003953 66 333 3.0 0.0 0.00 0.00 0.18 91 1011.8
20260906003821 66 310 3.0 0.0 0.00 0.00 0.18 91 1011.8
20260906003653 66 312 2.0 0.0 0.00 0.00 0.18 91 1011.8
20260906003532 66 330 3.0 0.0 0.00 0.00 0.18 91 1011.8
20260906002750 66 305 2.0 0.0 0.00 0.00 0.17 91 1011.9
20260906002251 66 331 1.0 0.0 0.00 0.00 0.16 91 1011.9
20260906001248 66 337 1.0 0.0 0.00 0.00 0.16 90 1011.9
20260906000750 66 338 2.0 0.0 0.00 0.00 0.15 90 1011.9
20260905235751 66 317 1.0 0.0 0.00 0.00 0.13 90 1012.0
20260905235254 66 319 1.0 0.0 0.00 0.00 0.13 90 1012.0
20260905234744 66 313 2.0 0.0 0.00 0.00 0.13 90 1012.0
20260905233253 66 334 2.0 0.0 0.00 0.00 0.11 90 1012.2
20260905233136 66 317 2.0 0.0 0.00 0.00 0.11 89 1012.2
20260905232744 66 324 2.0 0.0 0.00 0.00 0.10 89 1012.2
20260905232249 66 327 2.0 0.0 0.00 0.00 0.10 89 1012.2
20260905231738 66 340 2.0 0.0 0.00 0.00 0.09 89 1012.2
20260905230748 66 329 1.0 0.0 0.00 0.00 0.09 89 1012.1
20260905230254 66 324 2.0 0.0 0.00 0.00 0.09 88 1012.1
20260905230137 66 333 1.0 0.0 0.00 0.00 0.09 88 1012.1
20260905224747 66 327 1.0 0.0 0.00 0.00 0.07 88 1012.2
20260905224248 66 2 1.0 0.0 0.00 0.00 0.07 87 1012.0
20260905223740 66 338 1.0 0.0 0.00 0.00 0.06 87 1012.0
20260905223240 66 313 1.0 0.0 0.00 0.00 0.06 87 1012.0
20260905223124 66 322 2.0 0.0 0.00 0.00 0.06 87 1012.0
20260905222736 66 317 1.0 0.0 0.00 0.00 0.06 86 1011.8
20260905222235 66 330 1.0 0.0 0.00 0.00 0.06 86 1011.8
20260905221748 66 341 1.0 0.0 0.00 0.00 0.05 86 1011.8
20260905221249 67 316 1.0 0.0 0.00 0.00 0.05 85 1011.7
20260905220255 67 322 1.0 0.0 0.00 0.00 0.04 84 1011.7
20260905220137 67 314 1.0 0.0 0.00 0.00 0.04 84 1011.7
20260905215747 67 316 1.0 0.0 0.00 0.00 0.04 83 1011.7
20260905215249 67 327 1.0 0.0 0.00 0.00 0.03 83 1011.7
20260905213753 68 336 0.0 0.0 0.00 0.00 0.03 80 1011.7
20260905203742 69 327 1.0 0.0 0.00 0.00 0.00 74 1011.2
20260905203248 69 341 1.0 0.0 0.00 0.00 0.00 75 1011.2
20260905203130 69 344 1.0 0.0 0.00 0.00 0.00 75 1011.2
20260905202740 69 333 1.0 0.0 0.00 0.00 0.00 75 1011.2
20260905202238 69 336 1.0 0.0 0.00 0.00 0.00 75 1011.2
20260905201253 69 326 1.0 0.0 0.00 0.00 0.00 76 1011.2
20260905200741 69 326 1.0 0.0 0.00 0.00 0.00 76 1011.2
20260905200248 69 305 1.0 0.0 0.00 0.00 0.00 76 1011.2
20260905195743 69 313 1.0 0.0 0.00 0.00 0.00 76 1011.2
20260905194740 69 337 1.0 0.0 0.00 0.00 0.00 75 1011.2
20260905193735 69 319 1.0 0.0 0.00 0.00 0.00 75 1011.2
20260905193126 69 336 1.0 0.0 0.00 0.00 0.00 75 1011.2
20260905192737 69 330 1.0 0.0 0.00 0.00 0.00 75 1011.2
20260905192235 69 334 1.0 0.0 0.00 0.00 0.00 75 1011.2
20260905191748 69 330 1.0 0.0 0.00 0.00 0.00 75 1011.2
20260905191244 69 330 1.0 0.0 0.00 0.00 0.00 75 1011.2
20260905190746 69 329 1.0 0.0 0.00 0.00 0.00 75 1011.2
20260905190252 69 346 1.0 0.0 0.00 0.00 0.00 75 1011.2
20260905185254 69 316 1.0 0.0 0.00 0.00 0.00 76 1011.3
20260905184748 69 333 1.0 0.0 0.00 0.00 0.00 76 1011.3
20260905183747 69 330 1.0 0.0 0.00 0.00 0.00 77 1011.3
20260905183254 69 316 1.0 0.0 0.00 0.00 0.00 77 1011.3
20260905183137 69 323 1.0 0.0 0.00 0.00 0.00 77 1011.3
20260905182254 69 324 1.0 0.0 0.00 0.00 0.00 78 1011.2
20260905181744 69 326 1.0 0.0 0.00 0.00 0.00 78 1011.2
20260905181239 69 330 1.0 0.0 0.00 0.00 0.00 79 1011.5
20260905180740 69 336 1.0 0.0 0.00 0.00 0.00 79 1011.5
20260905180129 69 313 1.0 0.0 0.00 0.00 0.00 79 1011.5
20260905175740 69 302 1.0 0.0 0.00 0.00 0.00 79 1011.3
20260905175237 69 331 0.0 0.0 0.00 0.00 0.00 79 1011.3
20260905174748 69 326 0.0 0.0 0.00 0.00 0.00 79 1011.3
20260905174250 69 326 0.0 0.0 0.00 0.00 0.00 79 1011.4
20260905173241 69 316 0.0 0.0 0.00 0.00 0.00 79 1011.4
20260905172741 69 299 1.0 0.0 0.00 0.00 0.00 79 1011.4
20260905172238 69 317 0.0 0.0 0.00 0.00 0.00 79 1011.4
20260905171751 69 326 0.0 0.0 0.00 0.00 0.00 79 1011.4
20260905171252 69 327 0.0 0.0 0.00 0.00 0.00 79 1011.3
20260905170252 69 327 0.0 0.0 0.00 0.00 0.00 79 1011.3
20260905170132 69 327 0.0 0.0 0.00 0.00 0.00 79 1011.3
20260905165741 69 326 0.0 0.0 0.00 0.00 0.00 79 1011.2
20260905164749 70 312 1.0 0.0 0.00 0.00 0.00 79 1011.2
20260905164250 70 323 1.0 0.0 0.00 0.00 0.00 78 1011.3
20260905163747 70 322 0.0 0.0 0.00 0.00 0.00 78 1011.3
20260905162253 70 322 1.0 0.0 0.00 0.00 0.00 78 1011.2
20260905161746 70 330 0.0 0.0 0.00 0.00 0.00 78 1011.2
20260905161254 70 324 0.0 0.0 0.00 0.00 0.00 78 1011.3
20260905160744 70 327 0.0 0.0 0.00 0.00 0.00 78 1011.3
20260905160256 70 329 0.0 0.0 0.00 0.00 0.00 78 1011.3
20260905155254 70 322 1.0 0.0 0.00 0.00 0.00 78 1011.3
20260905154745 70 327 1.0 0.0 0.00 0.00 0.00 78 1011.3
20260905153750 70 324 0.0 0.0 0.00 0.00 0.00 78 1011.5
20260905153136 70 324 0.0 0.0 0.00 0.00 0.00 78 1011.5
20260905152249 70 327 0.0 0.0 0.00 0.00 0.00 78 1011.4
20260905151739 70 326 0.0 0.0 0.00 0.00 0.00 78 1011.4
20260905151244 70 326 0.0 0.0 0.00 0.00 0.00 78 1011.5
20260905150749 70 326 0.0 0.0 0.00 0.00 0.00 77 1011.5
20260905150251 70 326 0.0 0.0 0.00 0.00 0.00 77 1011.5
20260905150133 70 327 0.0 0.0 0.00 0.00 0.00 77 1011.5
20260905145750 70 326 0.0 0.0 0.00 0.00 0.21 77 1011.5
20260905145244 70 324 0.0 0.0 0.00 0.00 0.21 77 1011.5
20260905144736 70 1 0.0 0.0 0.00 0.00 0.21 77 1011.5
20260905143736 70 12 0.0 0.0 0.00 0.00 0.21 76 1011.5
20260905143235 70 327 0.0 0.0 0.00 0.00 0.21 75 1011.5
20260905143138 70 326 0.0 0.0 0.00 0.00 0.21 75 1011.5
20260905142752 70 333 0.0 0.0 0.00 0.00 0.21 75 1011.5
20260905142253 70 2 0.0 0.0 0.00 0.00 0.21 74 1011.5
20260905141739 70 8 0.0 0.0 0.00 0.00 0.21 74 1011.5
20260905013244 67 334 1.0 0.0 0.00 0.00 0.21 93 1009.9
20260905013131 67 358 1.0 0.0 0.00 0.00 0.21 93 1009.9
20260905012748 67 353 1.0 0.0 0.00 0.00 0.21 93 1009.8
20260905012235 67 21 1.0 0.0 0.00 0.00 0.21 93 1009.8
20260905011750 67 5 1.0 0.0 0.00 0.00 0.21 93 1009.8
20260905010736 67 353 1.0 0.0 0.00 0.00 0.21 93 1009.7
20260905010143 67 10 2.0 0.0 0.00 0.00 0.21 93 1009.7
20260905005747 67 42 2.0 0.0 0.00 0.00 0.21 93 1009.6
20260905005237 68 14 1.0 0.0 0.00 0.00 0.21 93 1009.7
20260905004745 68 19 0.0 0.0 0.00 0.00 0.21 93 1009.7
20260905003750 68 355 1.0 0.0 0.00 0.00 0.21 93 1009.6
20260905003249 68 355 1.0 0.0 0.00 0.00 0.21 93 1009.6
20260905003135 68 21 1.0 0.0 0.00 0.00 0.21 93 1009.6
20260905002253 68 25 1.0 0.0 0.00 0.00 0.21 93 1009.6
20260905001743 68 29 1.0 0.0 0.00 0.00 0.21 93 1009.6
20260905001254 68 29 1.0 0.0 0.00 0.00 0.21 93 1009.5
20260905000750 68 28 1.0 0.0 0.00 0.00 0.21 93 1009.5
20260905000242 68 7 0.0 0.0 0.00 0.00 0.21 93 1009.5
20260905000129 68 7 1.0 0.0 0.00 0.00 0.21 93 1009.5
20260904235749 68 11 1.0 0.0 0.00 0.00 0.21 94 1009.2
20260904235236 68 17 1.0 0.0 0.00 0.00 0.21 93 1009.2
20260904234747 68 32 0.0 0.0 0.00 0.00 0.21 93 1009.2
20260904234238 67 8 1.0 0.0 0.00 0.00 0.21 93 1009.0
20260904233746 67 35 1.0 0.0 0.00 0.00 0.21 93 1009.0
20260904233243 67 39 0.0 0.0 0.00 0.00 0.21 93 1009.0
20260904233147 67 43 0.0 0.0 0.00 0.00 0.21 93 1009.0
20260904232748 67 25 0.0 0.0 0.00 0.00 0.21 93 1008.9
20260904231737 67 35 0.0 0.0 0.00 0.00 0.21 94 1008.9
20260904231247 67 35 0.0 0.0 0.00 0.00 0.21 94 1008.9
20260904230242 67 32 1.0 0.0 0.00 0.00 0.21 93 1008.9
20260904230146 67 29 1.0 0.0 0.00 0.00 0.21 93 1008.9
20260904225750 66 35 1.0 0.0 0.00 0.00 0.21 93 1008.8
20260904225238 66 38 2.0 0.0 0.00 0.00 0.21 93 1008.8
20260904224755 66 36 3.0 0.0 0.00 0.00 0.21 93 1008.8
20260904224242 67 42 2.0 0.0 0.00 0.00 0.21 93 1008.6
20260904223751 67 32 0.0 0.0 0.00 0.00 0.20 93 1008.6
20260904223247 68 34 0.0 0.0 0.00 0.00 0.20 93 1008.6
20260904223131 68 35 0.0 0.0 0.00 0.00 0.20 93 1008.6
20260904222754 68 35 0.0 0.0 0.00 0.00 0.20 93 1008.6
20260904222242 67 34 0.0 0.0 0.00 0.00 0.20 93 1008.6
20260904221752 67 43 0.0 0.0 0.00 0.00 0.20 93 1008.6
20260904221242 67 43 0.0 0.0 0.00 0.00 0.20 93 1008.5
20260904220737 67 43 0.0 0.0 0.00 0.00 0.20 93 1008.5
20260904220144 67 43 0.0 0.0 0.00 0.00 0.20 93 1008.5
20260904215743 67 43 0.0 0.0 0.00 0.00 0.20 93 1008.4
20260904215254 67 45 0.0 0.0 0.00 0.00 0.20 93 1008.4
20260904214239 67 43 0.0 0.0 0.00 0.00 0.20 93 1008.2
20260904213746 67 43 0.0 0.0 0.00 0.00 0.20 93 1008.2
20260904213239 67 43 0.0 0.0 0.00 0.00 0.20 93 1008.2
20260904213127 67 43 0.0 0.0 0.00 0.00 0.20 93 1008.2
20260904212743 67 43 0.0 0.0 0.00 0.00 0.20 93 1008.1
20260904211247 67 36 1.0 0.0 0.00 0.00 0.20 93 1008.1
20260904210741 67 45 2.0 0.0 0.00 0.00 0.20 93 1008.1
20260904210127 67 45 1.0 0.0 0.00 0.00 0.20 92 1008.1
20260904205743 67 31 0.0 0.0 0.00 0.00 0.20 93 1008.3
20260904205254 68 7 0.0 0.0 0.00 0.00 0.20 93 1008.3
20260904204749 68 8 0.0 0.0 0.00 0.00 0.20 93 1008.3
20260904204240 68 7 0.0 0.0 0.00 0.00 0.20 93 1008.0
20260904203753 68 8 0.0 0.0 0.00 0.00 0.20 93 1008.0
20260904203253 68 8 0.0 0.0 0.00 0.00 0.20 93 1008.0
20260904203136 68 7 0.0 0.0 0.00 0.00 0.20 93 1008.0
20260904202738 68 8 0.0 0.0 0.00 0.00 0.20 93 1007.8
20260904202247 68 8 0.0 0.0 0.00 0.00 0.20 93 1007.8
20260904201740 68 7 0.0 0.0 0.00 0.00 0.19 92 1007.8
20260904201247 68 8 0.0 0.0 0.00 0.00 0.19 93 1008.0
20260904200739 68 67 0.0 0.0 0.00 0.00 0.19 92 1008.0
20260904200139 68 67 0.0 0.0 0.00 0.00 0.19 92 1008.0
20260904195739 68 67 0.0 0.0 0.00 0.00 0.18 92 1007.5
20260904195251 68 67 0.0 0.0 0.00 0.00 0.18 92 1007.5
20260904194743 68 67 0.0 0.0 0.00 0.00 0.17 92 1007.5
20260904194254 68 67 0.0 0.0 0.00 0.00 0.17 92 1007.2
20260904193742 68 67 0.0 0.0 0.00 0.00 0.17 92 1007.2
20260904193238 68 67 0.0 0.0 0.00 0.00 0.17 92 1007.2
20260904193142 68 67 0.0 0.0 0.00 0.00 0.17 92 1007.2
20260904192743 68 67 0.0 0.0 0.00 0.00 0.17 92 1006.8
20260904192236 68 67 0.0 0.0 0.00 0.00 0.17 92 1006.8
20260904191746 68 67 0.0 0.0 0.00 0.00 0.17 92 1006.8
20260904191250 68 67 0.0 0.0 0.00 0.00 0.17 92 1007.4
20260904190740 68 67 0.0 0.0 0.00 0.00 0.16 92 1007.4
20260904190236 68 67 0.0 0.0 0.00 0.00 0.16 92 1007.4
20260904190142 68 67 0.0 0.0 0.00 0.00 0.16 92 1007.4
20260904185743 68 67 0.0 0.0 0.00 0.00 0.16 92 1007.5
20260904184754 68 67 0.0 0.0 0.00 0.00 0.16 92 1007.5
20260904184242 68 67 0.0 0.0 0.00 0.00 0.15 92 1007.5
20260904183753 68 67 0.0 0.0 0.00 0.00 0.15 92 1007.5
20260904183248 67 67 0.0 0.0 0.00 0.00 0.14 92 1007.5
20260904183132 67 67 0.0 0.0 0.00 0.00 0.14 92 1007.5
20260904182748 67 67 0.0 0.0 0.00 0.00 0.14 92 1007.6
20260904182235 67 67 0.0 0.0 0.00 0.00 0.14 92 1007.6
20260904181753 67 67 0.0 0.0 0.00 0.00 0.13 92 1007.6
20260904180740 67 67 0.0 0.0 0.00 0.00 0.13 92 1007.9
20260904180237 67 67 0.0 0.0 0.00 0.00 0.13 91 1007.9
20260904180141 67 69 0.0 0.0 0.00 0.00 0.13 91 1007.9
20260904175743 67 67 0.0 0.0 0.00 0.00 0.13 91 1007.5
20260904175250 67 69 0.0 0.0 0.00 0.00 0.13 91 1007.5
20260904174742 67 67 0.0 0.0 0.00 0.00 0.13 91 1007.5
20260904174248 67 67 0.0 0.0 0.00 0.00 0.12 91 1007.4
20260904173736 67 67 0.0 0.0 0.00 0.00 0.12 91 1007.4
20260904173253 67 67 0.0 0.0 0.00 0.00 0.12 91 1007.4
20260904173137 67 67 0.0 0.0 0.00 0.00 0.11 91 1007.4